| time (UTC) | temp F | wind direction | speed MPH | gust MPH | rain 1hr in | rain 24hr in | rain mn in | humidity % | barometer mb |
| 20260831010004 | 69 | 28 | 6.0 | 14.0 | 0.00 | 0.00 | 0.00 | 53 | 1029.1 |
| 20260831005504 | 69 | 21 | 6.0 | 14.0 | 0.00 | 0.00 | 0.00 | 53 | 1029.1 |
| 20260831005004 | 68 | 6 | 6.0 | 11.0 | 0.00 | 0.00 | 0.00 | 58 | 1029.2 |
| 20260831004525 | 67 | 4 | 6.0 | 10.0 | 0.00 | 0.00 | 0.00 | 55 | 1029.2 |
| 20260831004004 | 67 | 352 | 6.0 | 10.0 | 0.00 | 0.00 | 0.00 | 57 | 1029.2 |
| 20260831003504 | 66 | 318 | 6.0 | 13.0 | 0.00 | 0.00 | 0.00 | 60 | 1029.2 |
| 20260831003004 | 66 | 322 | 6.0 | 13.0 | 0.00 | 0.00 | 0.00 | 63 | 1029.4 |
| 20260831002504 | 65 | 328 | 5.0 | 10.0 | 0.00 | 0.00 | 0.00 | 62 | 1029.4 |
| 20260831002025 | 65 | 320 | 3.0 | 10.0 | 0.00 | 0.00 | 0.00 | 63 | 1029.3 |
| 20260831001504 | 64 | 304 | 1.0 | 9.0 | 0.00 | 0.00 | 0.00 | 65 | 1029.3 |
| 20260831001026 | 63 | 257 | 1.0 | 6.0 | 0.00 | 0.00 | 0.00 | 66 | 1029.3 |
| 20260831000525 | 62 | 268 | 1.0 | 3.0 | 0.00 | 0.00 | 0.00 | 66 | 1029.3 |
| 20260831000025 | 61 | 301 | 1.0 | 3.0 | 0.00 | 0.00 | 0.00 | 69 | 1029.3 |
| 20260830235504 | 60 | 312 | 1.0 | 3.0 | 0.00 | 0.00 | 0.00 | 70 | 1029.3 |
| 20260830235004 | 59 | 312 | 0.0 | 3.0 | 0.00 | 0.00 | 0.00 | 71 | 1029.3 |
| 20260830234504 | 58 | 312 | 0.0 | 3.0 | 0.00 | 0.00 | 0.00 | 72 | 1029.3 |
| 20260830234004 | 57 | 312 | 1.0 | 5.0 | 0.00 | 0.00 | 0.00 | 73 | 1029.3 |
| 20260830233525 | 57 | 321 | 2.0 | 5.0 | 0.00 | 0.00 | 0.00 | 74 | 1029.4 |
| 20260830233025 | 56 | 317 | 3.0 | 5.0 | 0.00 | 0.00 | 0.00 | 75 | 1029.4 |
| 20260830232504 | 56 | 307 | 4.0 | 6.0 | 0.00 | 0.00 | 0.00 | 74 | 1029.5 |
| 20260830232004 | 56 | 309 | 4.0 | 6.0 | 0.00 | 0.00 | 0.00 | 74 | 1029.5 |
| 20260830231504 | 56 | 293 | 4.0 | 6.0 | 0.00 | 0.00 | 0.00 | 74 | 1029.5 |
| 20260830231005 | 56 | 291 | 4.0 | 8.0 | 0.00 | 0.00 | 0.00 | 73 | 1029.5 |
| 20260830230525 | 57 | 294 | 4.0 | 8.0 | 0.00 | 0.00 | 0.00 | 72 | 1029.6 |
| 20260830230025 | 58 | 282 | 3.0 | 6.0 | 0.00 | 0.00 | 0.00 | 72 | 1029.5 |
| 20260830225504 | 58 | 307 | 4.0 | 6.0 | 0.00 | 0.00 | 0.00 | 71 | 1029.5 |
| 20260830225025 | 58 | 72 | 5.0 | 8.0 | 0.00 | 0.00 | 0.00 | 71 | 1029.5 |
| 20260830224504 | 58 | 99 | 6.0 | 9.0 | 0.00 | 0.00 | 0.00 | 72 | 1029.4 |
| 20260830224004 | 57 | 101 | 6.0 | 10.0 | 0.00 | 0.00 | 0.00 | 72 | 1029.4 |
| 20260830223525 | 57 | 102 | 7.0 | 11.0 | 0.00 | 0.00 | 0.00 | 73 | 1029.3 |
| 20260830223004 | 56 | 101 | 7.0 | 11.0 | 0.00 | 0.00 | 0.00 | 73 | 1029.4 |
| 20260830222504 | 56 | 104 | 7.0 | 11.0 | 0.00 | 0.00 | 0.00 | 74 | 1029.4 |
| 20260830222004 | 55 | 105 | 8.0 | 11.0 | 0.00 | 0.00 | 0.00 | 75 | 1029.4 |
| 20260830221504 | 55 | 102 | 8.0 | 13.0 | 0.00 | 0.00 | 0.00 | 75 | 1029.3 |
| 20260830221004 | 54 | 104 | 8.0 | 13.0 | 0.00 | 0.00 | 0.00 | 76 | 1029.3 |
| 20260830220504 | 54 | 103 | 8.0 | 11.0 | 0.00 | 0.00 | 0.00 | 76 | 1029.2 |
| 20260830220004 | 53 | 103 | 8.0 | 15.0 | 0.00 | 0.00 | 0.00 | 77 | 1029.2 |
| 20260830215525 | 53 | 105 | 7.0 | 15.0 | 0.00 | 0.00 | 0.00 | 77 | 1029.2 |
| 20260830215004 | 53 | 106 | 6.0 | 11.0 | 0.00 | 0.00 | 0.00 | 77 | 1029.2 |
| 20260830214504 | 53 | 106 | 6.0 | 11.0 | 0.00 | 0.00 | 0.00 | 77 | 1029.2 |
| 20260830214004 | 52 | 106 | 6.0 | 10.0 | 0.00 | 0.00 | 0.00 | 78 | 1029.3 |
| 20260830213504 | 52 | 110 | 6.0 | 11.0 | 0.00 | 0.00 | 0.00 | 78 | 1029.3 |
| 20260830213004 | 52 | 111 | 7.0 | 11.0 | 0.00 | 0.00 | 0.00 | 78 | 1029.2 |
| 20260830212504 | 52 | 107 | 8.0 | 11.0 | 0.00 | 0.00 | 0.00 | 78 | 1029.2 |
| 20260830212004 | 52 | 102 | 8.0 | 14.0 | 0.00 | 0.00 | 0.00 | 79 | 1029.2 |
| 20260830211504 | 52 | 103 | 9.0 | 14.0 | 0.00 | 0.00 | 0.00 | 80 | 1029.2 |
| 20260830211004 | 51 | 107 | 9.0 | 11.0 | 0.00 | 0.00 | 0.00 | 80 | 1029.3 |
| 20260830210504 | 51 | 107 | 9.0 | 13.0 | 0.00 | 0.00 | 0.00 | 80 | 1029.3 |
| 20260830210004 | 51 | 108 | 9.0 | 14.0 | 0.00 | 0.00 | 0.00 | 80 | 1029.2 |
| 20260830205504 | 51 | 108 | 8.0 | 14.0 | 0.00 | 0.00 | 0.00 | 80 | 1029.2 |
| 20260830205025 | 51 | 106 | 8.0 | 13.0 | 0.00 | 0.00 | 0.00 | 80 | 1029.3 |
| 20260830204504 | 51 | 104 | 8.0 | 11.0 | 0.00 | 0.00 | 0.00 | 80 | 1029.2 |
| 20260830204004 | 51 | 104 | 8.0 | 11.0 | 0.00 | 0.00 | 0.00 | 80 | 1029.2 |
| 20260830203525 | 51 | 103 | 8.0 | 11.0 | 0.00 | 0.00 | 0.00 | 80 | 1029.2 |
| 20260830203004 | 52 | 105 | 8.0 | 11.0 | 0.00 | 0.00 | 0.00 | 80 | 1029.2 |
| 20260830202504 | 52 | 106 | 8.0 | 11.0 | 0.00 | 0.00 | 0.00 | 80 | 1029.1 |
| 20260830202004 | 52 | 105 | 8.0 | 11.0 | 0.00 | 0.00 | 0.00 | 81 | 1029.1 |
| 20260830201525 | 52 | 100 | 8.0 | 11.0 | 0.00 | 0.00 | 0.00 | 81 | 1029.1 |
| 20260830201004 | 52 | 98 | 8.0 | 11.0 | 0.00 | 0.00 | 0.00 | 81 | 1029.0 |
| 20260830200504 | 52 | 101 | 8.0 | 10.0 | 0.00 | 0.00 | 0.00 | 81 | 1029.0 |
| 20260830200004 | 52 | 103 | 9.0 | 11.0 | 0.00 | 0.00 | 0.00 | 81 | 1029.0 |
| 20260830195504 | 52 | 106 | 8.0 | 11.0 | 0.00 | 0.00 | 0.00 | 81 | 1028.9 |
| 20260830195004 | 52 | 111 | 8.0 | 13.0 | 0.00 | 0.00 | 0.00 | 80 | 1028.9 |
| 20260830194504 | 52 | 112 | 8.0 | 13.0 | 0.00 | 0.00 | 0.00 | 80 | 1028.8 |
| 20260830194004 | 52 | 109 | 8.0 | 10.0 | 0.00 | 0.00 | 0.00 | 80 | 1028.8 |
| 20260830193504 | 52 | 109 | 8.0 | 10.0 | 0.00 | 0.00 | 0.00 | 80 | 1028.8 |
| 20260830193004 | 52 | 110 | 8.0 | 11.0 | 0.00 | 0.00 | 0.00 | 80 | 1028.8 |
| 20260830192525 | 52 | 109 | 8.0 | 11.0 | 0.00 | 0.00 | 0.00 | 79 | 1028.8 |
| 20260830192004 | 52 | 110 | 8.0 | 13.0 | 0.00 | 0.00 | 0.00 | 79 | 1028.7 |
| 20260830191504 | 52 | 111 | 8.0 | 13.0 | 0.00 | 0.00 | 0.00 | 78 | 1028.8 |
| 20260830191025 | 52 | 112 | 8.0 | 11.0 | 0.00 | 0.00 | 0.00 | 78 | 1028.9 |
| 20260830190503 | 52 | 114 | 8.0 | 11.0 | 0.00 | 0.00 | 0.00 | 79 | 1029.0 |
| 20260830190004 | 52 | 117 | 8.0 | 11.0 | 0.00 | 0.00 | 0.00 | 79 | 1029.0 |
| 20260830185504 | 52 | 119 | 8.0 | 10.0 | 0.00 | 0.00 | 0.00 | 79 | 1029.1 |
| 20260830185004 | 52 | 118 | 8.0 | 10.0 | 0.00 | 0.00 | 0.00 | 79 | 1028.9 |
| 20260830184504 | 52 | 117 | 8.0 | 10.0 | 0.00 | 0.00 | 0.00 | 78 | 1029.0 |
| 20260830184004 | 52 | 118 | 7.0 | 10.0 | 0.00 | 0.00 | 0.00 | 78 | 1029.1 |
| 20260830183503 | 52 | 119 | 6.0 | 10.0 | 0.00 | 0.00 | 0.00 | 78 | 1029.1 |
| 20260830183003 | 52 | 115 | 6.0 | 10.0 | 0.00 | 0.00 | 0.00 | 78 | 1029.2 |
| 20260830182504 | 52 | 110 | 7.0 | 9.0 | 0.00 | 0.00 | 0.00 | 78 | 1029.2 |
| 20260830182004 | 52 | 110 | 7.0 | 10.0 | 0.00 | 0.00 | 0.00 | 78 | 1029.2 |
| 20260830181504 | 52 | 107 | 8.0 | 10.0 | 0.00 | 0.00 | 0.00 | 79 | 1029.2 |
| 20260830181004 | 52 | 105 | 8.0 | 10.0 | 0.00 | 0.00 | 0.00 | 79 | 1029.3 |
| 20260830180503 | 51 | 109 | 7.0 | 10.0 | 0.00 | 0.00 | 0.00 | 80 | 1029.3 |
| 20260830180003 | 51 | 117 | 6.0 | 11.0 | 0.00 | 0.00 | 0.00 | 79 | 1029.3 |
| 20260830175503 | 51 | 122 | 6.0 | 11.0 | 0.00 | 0.00 | 0.00 | 79 | 1029.3 |
| 20260830175003 | 51 | 121 | 7.0 | 8.0 | 0.00 | 0.00 | 0.00 | 79 | 1029.2 |
| 20260830174504 | 52 | 113 | 7.0 | 9.0 | 0.00 | 0.00 | 0.00 | 79 | 1029.2 |
| 20260830174004 | 51 | 110 | 8.0 | 10.0 | 0.00 | 0.00 | 0.00 | 79 | 1029.3 |
| 20260830173503 | 51 | 111 | 9.0 | 10.0 | 0.00 | 0.00 | 0.00 | 80 | 1029.4 |
| 20260830173004 | 51 | 113 | 8.0 | 11.0 | 0.00 | 0.00 | 0.00 | 80 | 1029.4 |
| 20260830172504 | 51 | 115 | 7.0 | 11.0 | 0.00 | 0.00 | 0.00 | 79 | 1029.4 |
| 20260830172003 | 51 | 119 | 7.0 | 11.0 | 0.00 | 0.00 | 0.00 | 78 | 1029.5 |
| 20260830171503 | 51 | 115 | 6.0 | 9.0 | 0.00 | 0.00 | 0.00 | 78 | 1029.5 |
| 20260830171025 | 52 | 110 | 7.0 | 9.0 | 0.00 | 0.00 | 0.00 | 78 | 1029.5 |
| 20260830170504 | 52 | 114 | 8.0 | 9.0 | 0.00 | 0.00 | 0.00 | 78 | 1029.6 |
| 20260830170004 | 52 | 116 | 9.0 | 11.0 | 0.00 | 0.00 | 0.00 | 78 | 1029.7 |
| 20260830165504 | 52 | 114 | 9.0 | 11.0 | 0.00 | 0.00 | 0.00 | 78 | 1029.7 |
| 20260830165024 | 52 | 114 | 8.0 | 11.0 | 0.00 | 0.00 | 0.00 | 78 | 1029.8 |
| 20260830164503 | 52 | 114 | 8.0 | 13.0 | 0.00 | 0.00 | 0.00 | 79 | 1029.8 |
| 20260830164004 | 52 | 114 | 7.0 | 13.0 | 0.00 | 0.00 | 0.00 | 79 | 1029.9 |
| 20260830163504 | 51 | 110 | 7.0 | 11.0 | 0.00 | 0.00 | 0.00 | 79 | 1029.9 |
| 20260830163004 | 51 | 108 | 7.0 | 11.0 | 0.00 | 0.00 | 0.00 | 79 | 1030.0 |
| 20260830162504 | 52 | 110 | 7.0 | 10.0 | 0.00 | 0.00 | 0.00 | 78 | 1030.1 |
| 20260830162004 | 52 | 111 | 8.0 | 10.0 | 0.00 | 0.00 | 0.00 | 79 | 1030.2 |
| 20260830161503 | 52 | 111 | 9.0 | 10.0 | 0.00 | 0.00 | 0.00 | 79 | 1030.2 |
| 20260830161004 | 52 | 111 | 8.0 | 11.0 | 0.00 | 0.00 | 0.00 | 80 | 1030.2 |
| 20260830160503 | 52 | 111 | 7.0 | 11.0 | 0.00 | 0.00 | 0.00 | 81 | 1030.2 |
| 20260830160004 | 51 | 116 | 7.0 | 10.0 | 0.00 | 0.00 | 0.00 | 82 | 1030.3 |
| 20260830155503 | 51 | 122 | 7.0 | 10.0 | 0.00 | 0.00 | 0.00 | 82 | 1030.3 |
| 20260830155024 | 51 | 116 | 8.0 | 10.0 | 0.00 | 0.00 | 0.00 | 83 | 1030.2 |
| 20260830154504 | 51 | 100 | 9.0 | 15.0 | 0.00 | 0.00 | 0.00 | 83 | 1030.3 |
| 20260830154024 | 51 | 95 | 9.0 | 15.0 | 0.00 | 0.00 | 0.00 | 84 | 1030.3 |
| 20260830153504 | 50 | 97 | 7.0 | 13.0 | 0.00 | 0.00 | 0.00 | 85 | 1030.4 |
| 20260830153004 | 50 | 102 | 7.0 | 13.0 | 0.00 | 0.00 | 0.00 | 85 | 1030.4 |
| 20260830152503 | 50 | 105 | 7.0 | 13.0 | 0.00 | 0.00 | 0.00 | 85 | 1030.5 |
| 20260830152025 | 50 | 102 | 8.0 | 13.0 | 0.00 | 0.00 | 0.00 | 85 | 1030.5 |
| 20260830151503 | 50 | 97 | 8.0 | 11.0 | 0.00 | 0.00 | 0.00 | 85 | 1030.5 |
| 20260830151004 | 50 | 98 | 7.0 | 11.0 | 0.00 | 0.00 | 0.00 | 86 | 1030.5 |
| 20260830150504 | 49 | 103 | 6.0 | 11.0 | 0.00 | 0.00 | 0.00 | 86 | 1030.5 |
| 20260830150024 | 48 | 108 | 6.0 | 10.0 | 0.00 | 0.00 | 0.00 | 86 | 1030.4 |
| 20260830145503 | 48 | 119 | 6.0 | 8.0 | 0.00 | 0.00 | 0.00 | 85 | 1030.5 |
| 20260830145003 | 48 | 121 | 6.0 | 9.0 | 0.00 | 0.00 | 0.00 | 85 | 1030.5 |
| 20260830144504 | 48 | 120 | 6.0 | 9.0 | 0.00 | 0.00 | 0.00 | 83 | 1030.5 |
| 20260830144004 | 48 | 112 | 6.0 | 9.0 | 0.00 | 0.00 | 0.00 | 83 | 1030.6 |
| 20260830143504 | 48 | 104 | 6.0 | 9.0 | 0.00 | 0.00 | 0.00 | 83 | 1030.7 |
| 20260830143006 | 48 | 99 | 6.0 | 8.0 | 0.00 | 0.00 | 0.00 | 82 | 1030.8 |
| 20260830142503 | 49 | 93 | 5.0 | 8.0 | 0.00 | 0.00 | 0.00 | 82 | 1030.9 |
| 20260830142003 | 49 | 91 | 4.0 | 6.0 | 0.00 | 0.00 | 0.00 | 82 | 1031.0 |
| 20260830141524 | 50 | 91 | 2.0 | 6.0 | 0.00 | 0.00 | 0.00 | 81 | 1031.2 |
| 20260830141004 | 50 | 91 | 0.0 | 5.0 | 0.00 | 0.00 | 0.00 | 82 | 1031.3 |
| 20260830140503 | 50 | 92 | 1.0 | 3.0 | 0.00 | 0.00 | 0.00 | 82 | 1031.2 |
| 20260830140004 | 50 | 91 | 1.0 | 5.0 | 0.00 | 0.00 | 0.00 | 82 | 1031.2 |
| 20260830135503 | 50 | 91 | 1.0 | 5.0 | 0.00 | 0.00 | 0.00 | 82 | 1031.2 |
| 20260830135003 | 50 | 92 | 1.0 | 5.0 | 0.00 | 0.00 | 0.00 | 82 | 1031.3 |
| 20260830134525 | 50 | 92 | 0.0 | 5.0 | 0.00 | 0.00 | 0.00 | 82 | 1031.3 |
| 20260830134003 | 50 | 0 | 0.0 | 0.0 | 0.00 | 0.00 | 0.00 | 82 | 1031.3 |
| 20260830133503 | 50 | 121 | 0.0 | 3.0 | 0.00 | 0.00 | 0.00 | 81 | 1031.2 |
| 20260830133003 | 50 | 121 | 1.0 | 3.0 | 0.00 | 0.00 | 0.00 | 81 | 1031.2 |
| 20260830132504 | 51 | 113 | 2.0 | 5.0 | 0.00 | 0.00 | 0.00 | 80 | 1031.1 |
| 20260830132003 | 51 | 59 | 3.0 | 5.0 | 0.00 | 0.00 | 0.00 | 81 | 1031.2 |
| 20260830131504 | 51 | 5 | 3.0 | 5.0 | 0.00 | 0.00 | 0.00 | 81 | 1031.2 |
| 20260830131004 | 51 | 337 | 2.0 | 6.0 | 0.00 | 0.00 | 0.00 | 81 | 1031.2 |
| 20260830130504 | 51 | 350 | 2.0 | 6.0 | 0.00 | 0.00 | 0.00 | 80 | 1031.2 |
| 20260830130004 | 51 | 134 | 2.0 | 5.0 | 0.00 | 0.00 | 0.00 | 80 | 1031.1 |
| 20260830125503 | 51 | 133 | 3.0 | 6.0 | 0.00 | 0.00 | 0.00 | 80 | 1031.1 |
| 20260830125004 | 51 | 130 | 3.0 | 6.0 | 0.00 | 0.00 | 0.00 | 80 | 1031.0 |
| 20260830124504 | 52 | 129 | 3.0 | 6.0 | 0.00 | 0.00 | 0.00 | 80 | 1031.1 |
| 20260830124025 | 52 | 128 | 3.0 | 6.0 | 0.00 | 0.00 | 0.00 | 79 | 1031.1 |
| 20260830123503 | 52 | 126 | 4.0 | 6.0 | 0.00 | 0.00 | 0.00 | 80 | 1031.1 |
| 20260830123024 | 52 | 121 | 4.0 | 6.0 | 0.00 | 0.00 | 0.00 | 80 | 1031.1 |
| 20260830122503 | 52 | 115 | 3.0 | 6.0 | 0.00 | 0.00 | 0.00 | 80 | 1031.0 |
| 20260830122003 | 52 | 114 | 1.0 | 6.0 | 0.00 | 0.00 | 0.00 | 80 | 1031.0 |
| 20260830121503 | 52 | 107 | 0.0 | 5.0 | 0.00 | 0.00 | 0.00 | 81 | 1031.0 |
| 20260830121003 | 52 | 9 | 1.0 | 3.0 | 0.00 | 0.00 | 0.00 | 80 | 1031.1 |
| 20260830120503 | 53 | 9 | 1.0 | 5.0 | 0.00 | 0.00 | 0.00 | 80 | 1030.9 |
| 20260830120004 | 53 | 27 | 1.0 | 5.0 | 0.00 | 0.00 | 0.00 | 80 | 1030.9 |
| 20260830115525 | 53 | 40 | 1.0 | 4.0 | 0.00 | 0.00 | 0.00 | 79 | 1030.8 |
| 20260830115004 | 54 | 79 | 3.0 | 6.0 | 0.00 | 0.00 | 0.00 | 79 | 1030.7 |
| 20260830114504 | 54 | 109 | 5.0 | 8.0 | 0.00 | 0.00 | 0.00 | 78 | 1030.6 |
| 20260830114003 | 54 | 122 | 6.0 | 9.0 | 0.00 | 0.00 | 0.00 | 78 | 1030.6 |
| 20260830113503 | 54 | 118 | 6.0 | 10.0 | 0.00 | 0.00 | 0.00 | 78 | 1030.6 |
| 20260830113004 | 54 | 111 | 7.0 | 10.0 | 0.00 | 0.00 | 0.00 | 78 | 1030.6 |
| 20260830112504 | 55 | 109 | 7.0 | 11.0 | 0.00 | 0.00 | 0.00 | 78 | 1030.6 |
| 20260830112004 | 55 | 113 | 8.0 | 11.0 | 0.00 | 0.00 | 0.00 | 77 | 1030.6 |
| 20260830111525 | 55 | 116 | 8.0 | 11.0 | 0.00 | 0.00 | 0.00 | 77 | 1030.7 |
| 20260830111004 | 56 | 116 | 8.0 | 11.0 | 0.00 | 0.00 | 0.00 | 77 | 1030.6 |
| 20260830110504 | 56 | 108 | 8.0 | 13.0 | 0.00 | 0.00 | 0.00 | 77 | 1030.6 |
| 20260830110025 | 56 | 100 | 8.0 | 13.0 | 0.00 | 0.00 | 0.00 | 77 | 1030.5 |
| 20260830105504 | 56 | 104 | 7.0 | 11.0 | 0.00 | 0.00 | 0.00 | 77 | 1030.4 |
| 20260830105004 | 56 | 101 | 6.0 | 11.0 | 0.00 | 0.00 | 0.00 | 77 | 1030.3 |
| 20260830104504 | 56 | 96 | 7.0 | 11.0 | 0.00 | 0.00 | 0.00 | 77 | 1030.3 |
| 20260830104004 | 56 | 99 | 7.0 | 13.0 | 0.00 | 0.00 | 0.00 | 76 | 1030.4 |
| 20260830103504 | 55 | 96 | 5.0 | 13.0 | 0.00 | 0.00 | 0.00 | 77 | 1030.4 |
| 20260830103025 | 55 | 95 | 4.0 | 11.0 | 0.00 | 0.00 | 0.00 | 77 | 1030.3 |
| 20260830102504 | 55 | 100 | 4.0 | 10.0 | 0.00 | 0.00 | 0.00 | 77 | 1030.3 |
| 20260830102004 | 55 | 109 | 4.0 | 8.0 | 0.00 | 0.00 | 0.00 | 76 | 1030.2 |
| 20260830101504 | 55 | 118 | 4.0 | 8.0 | 0.00 | 0.00 | 0.00 | 76 | 1030.2 |
| 20260830101004 | 55 | 116 | 5.0 | 10.0 | 0.00 | 0.00 | 0.00 | 76 | 1030.1 |
| 20260830100504 | 55 | 105 | 5.0 | 10.0 | 0.00 | 0.00 | 0.00 | 75 | 1030.0 |
| 20260830100004 | 55 | 100 | 5.0 | 11.0 | 0.00 | 0.00 | 0.00 | 75 | 1030.0 |
| 20260830095525 | 55 | 98 | 4.0 | 11.0 | 0.00 | 0.00 | 0.00 | 75 | 1029.9 |
| 20260830095004 | 55 | 101 | 4.0 | 11.0 | 0.00 | 0.00 | 0.00 | 75 | 1030.0 |
| 20260830094504 | 55 | 111 | 5.0 | 10.0 | 0.00 | 0.00 | 0.00 | 74 | 1030.0 |
| 20260830094004 | 56 | 119 | 6.0 | 8.0 | 0.00 | 0.00 | 0.00 | 74 | 1030.0 |
| 20260830093504 | 56 | 118 | 7.0 | 10.0 | 0.00 | 0.00 | 0.00 | 74 | 1029.9 |
| 20260830093004 | 56 | 115 | 7.0 | 10.0 | 0.00 | 0.00 | 0.00 | 74 | 1029.9 |
| 20260830092504 | 56 | 114 | 6.0 | 9.0 | 0.00 | 0.00 | 0.00 | 74 | 1029.9 |
| 20260830092004 | 56 | 116 | 6.0 | 9.0 | 0.00 | 0.00 | 0.00 | 74 | 1029.9 |
| 20260830091504 | 56 | 116 | 6.0 | 9.0 | 0.00 | 0.00 | 0.00 | 74 | 1030.0 |
| 20260830091004 | 56 | 113 | 6.0 | 9.0 | 0.00 | 0.00 | 0.00 | 73 | 1029.9 |
| 20260830090525 | 57 | 111 | 5.0 | 8.0 | 0.00 | 0.00 | 0.00 | 73 | 1029.9 |
| 20260830090004 | 58 | 108 | 5.0 | 8.0 | 0.00 | 0.00 | 0.00 | 73 | 1029.9 |
| 20260830085504 | 58 | 107 | 4.0 | 8.0 | 0.00 | 0.00 | 0.00 | 73 | 1029.9 |
| 20260830085004 | 59 | 110 | 3.0 | 6.0 | 0.00 | 0.00 | 0.00 | 72 | 1029.9 |
| 20260830084504 | 60 | 113 | 3.0 | 6.0 | 0.00 | 0.00 | 0.00 | 71 | 1029.9 |
| 20260830084004 | 60 | 113 | 2.0 | 6.0 | 0.00 | 0.00 | 0.00 | 70 | 1029.9 |
| 20260830083504 | 61 | 120 | 2.0 | 6.0 | 0.00 | 0.00 | 0.00 | 69 | 1030.0 |
| 20260830083004 | 62 | 142 | 1.0 | 5.0 | 0.00 | 0.00 | 0.00 | 67 | 1030.0 |
| 20260830082504 | 63 | 149 | 2.0 | 4.0 | 0.00 | 0.00 | 0.00 | 65 | 1029.9 |
| 20260830082025 | 64 | 148 | 2.0 | 5.0 | 0.00 | 0.00 | 0.00 | 64 | 1030.0 |
| 20260830081525 | 66 | 160 | 2.0 | 5.0 | 0.00 | 0.00 | 0.00 | 61 | 1029.9 |
| 20260830081004 | 67 | 191 | 2.0 | 5.0 | 0.00 | 0.00 | 0.00 | 59 | 1029.9 |
| 20260830080504 | 68 | 200 | 3.0 | 8.0 | 0.00 | 0.00 | 0.00 | 57 | 1029.9 |
| 20260830080004 | 69 | 195 | 3.0 | 8.0 | 0.00 | 0.00 | 0.00 | 56 | 1029.8 |
| 20260830075504 | 69 | 189 | 3.0 | 6.0 | 0.00 | 0.00 | 0.00 | 56 | 1029.8 |
| 20260830075025 | 70 | 196 | 3.0 | 8.0 | 0.00 | 0.00 | 0.00 | 56 | 1029.8 |
| 20260830074504 | 70 | 203 | 3.0 | 8.0 | 0.00 | 0.00 | 0.00 | 55 | 1029.7 |
| 20260830074004 | 70 | 201 | 3.0 | 6.0 | 0.00 | 0.00 | 0.00 | 55 | 1029.7 |
| 20260830073504 | 70 | 203 | 4.0 | 8.0 | 0.00 | 0.00 | 0.00 | 55 | 1029.7 |
| 20260830073004 | 70 | 206 | 4.0 | 8.0 | 0.00 | 0.00 | 0.00 | 54 | 1029.8 |
| 20260830072504 | 70 | 206 | 5.0 | 9.0 | 0.00 | 0.00 | 0.00 | 53 | 1029.8 |
| 20260830072025 | 71 | 205 | 5.0 | 9.0 | 0.00 | 0.00 | 0.00 | 53 | 1029.8 |
| 20260830071504 | 71 | 203 | 5.0 | 10.0 | 0.00 | 0.00 | 0.00 | 52 | 1029.8 |
| 20260830071004 | 71 | 201 | 5.0 | 10.0 | 0.00 | 0.00 | 0.00 | 51 | 1029.7 |
| 20260830070504 | 71 | 207 | 6.0 | 9.0 | 0.00 | 0.00 | 0.00 | 51 | 1029.7 |
| 20260830070004 | 71 | 212 | 6.0 | 10.0 | 0.00 | 0.00 | 0.00 | 50 | 1029.8 |
| 20260830065504 | 71 | 207 | 6.0 | 10.0 | 0.00 | 0.00 | 0.00 | 50 | 1029.8 |
| 20260830065025 | 71 | 202 | 6.0 | 11.0 | 0.00 | 0.00 | 0.00 | 50 | 1029.9 |
| 20260830064504 | 72 | 204 | 6.0 | 11.0 | 0.00 | 0.00 | 0.00 | 50 | 1029.9 |
| 20260830064025 | 71 | 204 | 6.0 | 11.0 | 0.00 | 0.00 | 0.00 | 51 | 1029.9 |
| 20260830063504 | 72 | 205 | 6.0 | 13.0 | 0.00 | 0.00 | 0.00 | 49 | 1029.9 |
| 20260830063004 | 72 | 204 | 5.0 | 13.0 | 0.00 | 0.00 | 0.00 | 49 | 1029.9 |
| 20260830062504 | 72 | 203 | 4.0 | 10.0 | 0.00 | 0.00 | 0.00 | 50 | 1030.0 |
| 20260830062004 | 73 | 205 | 5.0 | 9.0 | 0.00 | 0.00 | 0.00 | 49 | 1030.0 |
| 20260830061525 | 73 | 195 | 5.0 | 10.0 | 0.00 | 0.00 | 0.00 | 50 | 1030.1 |
| 20260830061003 | 73 | 189 | 5.0 | 11.0 | 0.00 | 0.00 | 0.00 | 49 | 1030.0 |
| 20260830060525 | 73 | 194 | 4.0 | 11.0 | 0.00 | 0.00 | 0.00 | 50 | 1030.2 |
| 20260830060004 | 73 | 201 | 4.0 | 10.0 | 0.00 | 0.00 | 0.00 | 48 | 1030.3 |
| 20260830055525 | 73 | 248 | 4.0 | 10.0 | 0.00 | 0.00 | 0.00 | 46 | 1030.3 |
| 20260830055003 | 73 | 239 | 4.0 | 9.0 | 0.00 | 0.00 | 0.00 | 48 | 1030.3 |
| 20260830054504 | 74 | 189 | 3.0 | 9.0 | 0.00 | 0.00 | 0.00 | 46 | 1030.4 |
| 20260830054003 | 74 | 163 | 3.0 | 6.0 | 0.00 | 0.00 | 0.00 | 46 | 1030.4 |
| 20260830053504 | 74 | 187 | 3.0 | 6.0 | 0.00 | 0.00 | 0.00 | 44 | 1030.5 |
| 20260830053004 | 73 | 284 | 3.0 | 6.0 | 0.00 | 0.00 | 0.00 | 46 | 1030.4 |
| 20260830052504 | 73 | 240 | 4.0 | 6.0 | 0.00 | 0.00 | 0.00 | 44 | 1030.5 |
| 20260830052003 | 73 | 217 | 4.0 | 9.0 | 0.00 | 0.00 | 0.00 | 45 | 1030.5 |
| 20260830051503 | 72 | 238 | 4.0 | 9.0 | 0.00 | 0.00 | 0.00 | 49 | 1030.6 |
| 20260830051004 | 72 | 246 | 4.0 | 8.0 | 0.00 | 0.00 | 0.00 | 49 | 1030.6 |
| 20260830050503 | 72 | 251 | 4.0 | 9.0 | 0.00 | 0.00 | 0.00 | 46 | 1030.7 |
| 20260830050003 | 72 | 263 | 4.0 | 9.0 | 0.00 | 0.00 | 0.00 | 48 | 1030.7 |
| 20260830045525 | 72 | 235 | 4.0 | 8.0 | 0.00 | 0.00 | 0.00 | 47 | 1030.8 |
| 20260830045003 | 73 | 209 | 3.0 | 8.0 | 0.00 | 0.00 | 0.00 | 47 | 1030.9 |
| 20260830044503 | 73 | 209 | 3.0 | 8.0 | 0.00 | 0.00 | 0.00 | 47 | 1030.8 |
| 20260830044025 | 73 | 234 | 3.0 | 8.0 | 0.00 | 0.00 | 0.00 | 47 | 1030.9 |
| 20260830043504 | 72 | 277 | 3.0 | 9.0 | 0.00 | 0.00 | 0.00 | 48 | 1030.9 |
| 20260830043004 | 71 | 228 | 4.0 | 9.0 | 0.00 | 0.00 | 0.00 | 47 | 1030.9 |
| 20260830042504 | 72 | 236 | 5.0 | 8.0 | 0.00 | 0.00 | 0.00 | 48 | 1030.9 |
| 20260830042004 | 71 | 271 | 3.0 | 9.0 | 0.00 | 0.00 | 0.00 | 48 | 1030.9 |
| 20260830041503 | 71 | 271 | 2.0 | 9.0 | 0.00 | 0.00 | 0.00 | 50 | 1031.0 |
| 20260830041025 | 72 | 243 | 2.0 | 6.0 | 0.00 | 0.00 | 0.00 | 50 | 1031.2 |
| 20260830040525 | 71 | 254 | 4.0 | 6.0 | 0.00 | 0.00 | 0.00 | 49 | 1031.3 |
| 20260830040004 | 70 | 245 | 5.0 | 10.0 | 0.00 | 0.00 | 0.00 | 52 | 1031.3 |
| 20260830035504 | 70 | 268 | 5.0 | 10.0 | 0.00 | 0.00 | 0.00 | 50 | 1031.4 |
| 20260830035004 | 70 | 285 | 3.0 | 10.0 | 0.00 | 0.00 | 0.00 | 50 | 1031.5 |
| 20260830034503 | 71 | 287 | 2.0 | 8.0 | 0.00 | 0.00 | 0.00 | 50 | 1031.6 |
| 20260830034003 | 71 | 294 | 2.0 | 6.0 | 0.00 | 0.00 | 0.00 | 50 | 1031.7 |
| 20260830033503 | 70 | 315 | 3.0 | 6.0 | 0.00 | 0.00 | 0.00 | 52 | 1031.7 |
| 20260830033003 | 70 | 314 | 4.0 | 8.0 | 0.00 | 0.00 | 0.00 | 55 | 1031.7 |
| 20260830032503 | 69 | 298 | 4.0 | 8.0 | 0.00 | 0.00 | 0.00 | 53 | 1031.8 |
| 20260830032004 | 69 | 303 | 5.0 | 9.0 | 0.00 | 0.00 | 0.00 | 56 | 1031.9 |
| 20260830031503 | 68 | 324 | 5.0 | 10.0 | 0.00 | 0.00 | 0.00 | 54 | 1032.0 |
| 20260830031003 | 68 | 321 | 6.0 | 10.0 | 0.00 | 0.00 | 0.00 | 56 | 1032.1 |
| 20260830030504 | 68 | 290 | 6.0 | 9.0 | 0.00 | 0.00 | 0.00 | 57 | 1032.2 |
| 20260830030024 | 68 | 298 | 5.0 | 9.0 | 0.00 | 0.00 | 0.00 | 54 | 1032.2 |
| 20260830025503 | 68 | 314 | 3.0 | 9.0 | 0.00 | 0.00 | 0.00 | 55 | 1032.3 |
| 20260830025003 | 69 | 311 | 3.0 | 8.0 | 0.00 | 0.00 | 0.00 | 54 | 1032.3 |
| 20260830024504 | 69 | 351 | 4.0 | 9.0 | 0.00 | 0.00 | 0.00 | 52 | 1032.4 |
| 20260830024004 | 68 | 354 | 4.0 | 9.0 | 0.00 | 0.00 | 0.00 | 53 | 1032.5 |
| 20260830023503 | 68 | 358 | 4.0 | 9.0 | 0.00 | 0.00 | 0.00 | 56 | 1032.6 |
| 20260830023003 | 68 | 342 | 5.0 | 9.0 | 0.00 | 0.00 | 0.00 | 57 | 1032.7 |
| 20260830022503 | 67 | 340 | 5.0 | 9.0 | 0.00 | 0.00 | 0.00 | 58 | 1032.8 |
| 20260830022004 | 67 | 351 | 5.0 | 8.0 | 0.00 | 0.00 | 0.00 | 57 | 1032.7 |
| 20260830021503 | 66 | 344 | 5.0 | 10.0 | 0.00 | 0.00 | 0.00 | 55 | 1032.7 |
| 20260830021024 | 66 | 335 | 5.0 | 10.0 | 0.00 | 0.00 | 0.00 | 59 | 1032.8 |
| 20260830020503 | 66 | 315 | 5.0 | 10.0 | 0.00 | 0.00 | 0.00 | 58 | 1032.8 |
| 20260830020003 | 66 | 302 | 5.0 | 9.0 | 0.00 | 0.00 | 0.00 | 59 | 1032.9 |
| 20260830015503 | 65 | 286 | 5.0 | 9.0 | 0.00 | 0.00 | 0.00 | 60 | 1032.9 |
| 20260830015003 | 66 | 305 | 4.0 | 9.0 | 0.00 | 0.00 | 0.00 | 58 | 1032.9 |
| 20260830014503 | 66 | 339 | 5.0 | 9.0 | 0.00 | 0.00 | 0.00 | 56 | 1033.0 |
| 20260830014003 | 66 | 353 | 4.0 | 9.0 | 0.00 | 0.00 | 0.00 | 54 | 1033.0 |
| 20260830013503 | 66 | 12 | 3.0 | 9.0 | 0.00 | 0.00 | 0.00 | 56 | 1033.0 |
| 20260830013004 | 65 | 8 | 3.0 | 9.0 | 0.00 | 0.00 | 0.00 | 58 | 1033.0 |
| 20260830012524 | 65 | 16 | 4.0 | 6.0 | 0.00 | 0.00 | 0.00 | 54 | 1033.0 |
| 20260830012003 | 64 | 11 | 4.0 | 8.0 | 0.00 | 0.00 | 0.00 | 56 | 1033.0 |
| 20260830011504 | 64 | 9 | 4.0 | 8.0 | 0.00 | 0.00 | 0.00 | 56 | 1033.1 |
| 20260830011003 | 64 | 24 | 5.0 | 10.0 | 0.00 | 0.00 | 0.00 | 56 | 1033.1 |
| 20260830010503 | 64 | 17 | 4.0 | 10.0 | 0.00 | 0.00 | 0.00 | 57 | 1033.2 |